STARLINK-1802, 46702

Orbit data source: Space-Track

STARLINK-1802, 46702 is a payload satellite owned by SpaceX/Seattle (US) in LEO that was launched on Sun, 18 Oct 2020 UTC via an FALCON 9 launch vehicle from the Air Force Eastern Test Range (AFETR). Payload-class satellites include a variety of spacecraft equipped with specific instruments for various scientific and technological missions. These include communications satellites like Starlink; space stations such as the ISS; scientific satellites like the Hubble; Earth observation satellites from companies like Planet Labs, Umbra, and HawkEye 360; GPS; miniature CubeSats for education and research; and military/defense satellites.

Loading next visibility...
Identifier
46702, 2020-073AJ
Orbit
LEO
Last TLE update
17 hours ago
Origin
Manufacturer
SpaceX/Seattle
Mission
Operational Commercial Communications
Bus & Motor
STARLINK, Unknown motor
Mass
260 kg wet, ~248 kg dry
Launch date (UTC)
2020-10-18 (5 years ago)
Launch vehicle
FALCON 9
Launch site
Air Force Eastern Test Range (AFETR)
Object type
Payload
Rocket body
Debris
Shape & HBR
Box + 1 Pan, 8.86 m
Radar Cross Section
13.562 m², Large (>1 m²)

Expand to show TLE details & history

TLE from 17 hours ago
0 STARLINK-1802
1 46702U 20073AJ  25181.58901400  .00006182  00000-0  43353-3 0  9993
2 46702  53.0539 273.3426 0001207  77.1832 282.9291 15.06401637259418
Epoch: 2025-06-30T14:08Z
TLE epoch observation values (Epoch: 2025-06-30T14:08:10.809Z)
Latitude
-0.00009°
Longitude
142.40084°
Altitude
547.899 km
Speed
7.589 km/s
True Right ascension
18h 13m 22s
True Declination
0° 00' 00"
Sunlit
Object was in full shadow at epoch
Visualization orbit readout
Latitude
-41.77641°
Longitude
1.15504°
Altitude
561.843 km
Speed
7.58 km/s
Apparent Right ascension
07h 48m 02s
Apparent Declination
-41° 45' 34"
Sunlit
Object is in daylight
Visualization observer readout
Local Sidereal Time
18:44:06
Azimuth
256.143° W
Elevation
-77.786°
Doppler factor
1
Orbital elements
Apogee altitude
548.313 km
Perigee altitude
546.641 km
Semi-major axis
6,925.614 km
Eccentricity
0.00012
Inclination
53.0539°
RAAN
273.3426°
Arg. of periapsis
77.1832°
True anomaly
Unknown
Mean anomaly
282.9291°
Eccentric anomaly
Unknown
Mean motion
3.76579 °/min
Orbital period
95.6 mins
BSTAR
0.00043353
Loading maneuver chart data...
Loading SW <> Apogee altitude chart data...
Loading historical data...
Loading historical data...
Loading historical data...
Loading historical data...
Loading historical data...
Loading historical data...
Loading historical data...

STARLINK-1802 Visibility forecast

Observer location: undefined°, undefined°

Span
Click to sort rows by Start time (UTC) header in descending order
Start Az.
Max El. time (UTC)
Max El. Az.
Max El.
End time (UTC)
End Az.
5 mins2025-07-01 07:48:12.282Z176.883° S2025-07-01 07:51:12.282Z121.186° SE21.584°2025-07-01 07:53:12.282Z85.182° E
6 mins2025-07-01 09:27:12.282Z254.488° W2025-07-01 09:30:12.282Z328.416° NNW37.05°2025-07-01 09:33:12.282Z37.207° NE
5 mins2025-07-01 14:30:12.282Z346.114° N2025-07-01 14:32:12.282Z35.516° NE26.357°2025-07-01 14:35:12.282Z87.925° E
6 mins2025-07-01 16:09:12.282Z290.096° WNW2025-07-01 16:11:12.282Z244.536° WSW35.294°2025-07-01 16:15:12.282Z153.266° SSE
|